When you browse on this site, cookies collect data to enhance your experience and personalize the content and advertising you see.
Visit our Privacy Policy to learn more. By continuing to use the site, you agree to this use of cookies and data.
  • In Spain
  • List of Countries
  • For 7 days
  • Water Temperature
  • Weather Map
  • Weather Widgets
  • user-avatar
    Login

    Hourly Weather Uige

    Today, 23 January, Thursday

    Time Temperature Precipitation Wind Pressure Humidity
    00:00 +20°C° 0.1 mm 0 mps 690 mmHg 97%
    01:00 +20°C° 0 mm 0 mps 690 mmHg 97%
    02:00 +20°C° 0 mm 0 mps 690 mmHg 97%
    03:00 +19°C° 0 mm 0 mps 690 mmHg 97%
    04:00 +19°C° 0 mm 0 mps 689 mmHg 98%
    05:00 +20°C° 0 mm 0 mps 690 mmHg 97%
    06:00 +20°C° 0 mm 0 mps 690 mmHg 97%
    07:00 +20°C° 0 mm 0 mps 691 mmHg 96%
    08:00 +23°C° 0 mm 0 mps 691 mmHg 86%
    09:00 +27°C° 0 mm 1 mps 692 mmHg 76%
    10:00 +29°C° 0 mm 1 mps 692 mmHg 67%
    11:00 +30°C° 0.1 mm 1 mps 692 mmHg 63%
    12:00 +30°C° 0.1 mm 2 mps 691 mmHg 60%
    13:00 +31°C° 0.1 mm 2 mps 690 mmHg 56%
    14:00 +30°C° 0.9 mm 2 mps 690 mmHg 67%
    15:00 +28°C° 0.9 mm 2 mps 689 mmHg 78%
    16:00 +27°C° 0.9 mm 2 mps 688 mmHg 89%
    17:00 +26°C° 0.8 mm 1 mps 689 mmHg 91%
    18:00 +25°C° 0.8 mm 1 mps 689 mmHg 93%
    19:00 +21°C° 0.8 mm 0 mps 689 mmHg 95%
    20:00 +21°C° 0.9 mm 0 mps 690 mmHg 96%
    21:00 +21°C° 0.9 mm 0 mps 690 mmHg 96%
    22:00 +21°C° 0.9 mm 0 mps 691 mmHg 96%
    23:00 +21°C° 0.1 mm 0 mps 691 mmHg 96%

    Tomorrow, 24 January, Friday

    Time Temperature Precipitation Wind Pressure Humidity
    00:00 +21°C° 0.1 mm 0 mps 690 mmHg 96%
    01:00 +21°C° 0.1 mm 0 mps 690 mmHg 96%
    02:00 +21°C° 0.1 mm 0 mps 690 mmHg 97%
    03:00 +20°C° 0.1 mm 0 mps 690 mmHg 97%
    04:00 +20°C° 0.1 mm 0 mps 690 mmHg 97%
    05:00 +20°C° 0 mm 0 mps 690 mmHg 97%
    06:00 +21°C° 0 mm 0 mps 691 mmHg 96%
    07:00 +21°C° 0 mm 0 mps 691 mmHg 96%
    08:00 +22°C° 0.6 mm 0 mps 692 mmHg 91%
    09:00 +24°C° 0.6 mm 0 mps 692 mmHg 85%
    10:00 +27°C° 0.6 mm 1 mps 692 mmHg 80%
    11:00 +28°C° 0.9 mm 1 mps 692 mmHg 79%
    12:00 +28°C° 0.9 mm 1 mps 691 mmHg 78%
    13:00 +28°C° 0.9 mm 2 mps 691 mmHg 77%
    14:00 +28°C° 0.9 mm 2 mps 690 mmHg 81%
    15:00 +27°C° 0.9 mm 1 mps 690 mmHg 84%
    16:00 +27°C° 0.9 mm 1 mps 689 mmHg 87%
    17:00 +26°C° 0.6 mm 1 mps 689 mmHg 90%
    18:00 +24°C° 0.6 mm 1 mps 690 mmHg 92%
    19:00 +21°C° 0.6 mm 0 mps 690 mmHg 94%
    20:00 +21°C° 0.1 mm 0 mps 690 mmHg 95%
    21:00 +20°C° 0.1 mm 0 mps 691 mmHg 95%
    22:00 +22°C° 0.1 mm 1 mps 691 mmHg 95%
    23:00 +22°C° 0 mm 1 mps 691 mmHg 96%

    Day after tomorrow, 25 January, Saturday

    Time Temperature Precipitation Wind Pressure Humidity
    00:00 +22°C° 0 mm 1 mps 691 mmHg 96%
    01:00 +22°C° 0 mm 1 mps 691 mmHg 97%
    02:00 +22°C° 0 mm 1 mps 691 mmHg 97%
    03:00 +22°C° 0 mm 1 mps 690 mmHg 97%
    04:00 +20°C° 0 mm 0 mps 690 mmHg 97%
    05:00 +20°C° 0 mm 0 mps 690 mmHg 97%
    06:00 +20°C° 0 mm 0 mps 691 mmHg 97%
    07:00 +20°C° 0 mm 0 mps 692 mmHg 97%
    08:00 +21°C° 0 mm 0 mps 692 mmHg 92%
    09:00 +22°C° 0 mm 0 mps 692 mmHg 86%
    10:00 +24°C° 0 mm 0 mps 692 mmHg 81%
    11:00 +27°C° 0.1 mm 1 mps 692 mmHg 75%
    12:00 +28°C° 0.1 mm 1 mps 692 mmHg 69%
    13:00 +29°C° 0.1 mm 2 mps 691 mmHg 63%
    14:00 +29°C° 0.2 mm 2 mps 691 mmHg 64%
    15:00 +29°C° 0.2 mm 2 mps 690 mmHg 66%
    16:00 +28°C° 0.2 mm 2 mps 690 mmHg 67%
    17:00 +27°C° 0 mm 2 mps 690 mmHg 74%
    18:00 +25°C° 0 mm 1 mps 690 mmHg 81%
    19:00 +23°C° 0 mm 1 mps 690 mmHg 88%
    20:00 +23°C° 0 mm 1 mps 690 mmHg 90%
    21:00 +22°C° 0 mm 1 mps 691 mmHg 92%
    22:00 +22°C° 0 mm 1 mps 691 mmHg 94%
    23:00 +21°C° 0 mm 1 mps 691 mmHg 95%

    26 January, Sunday

    Time Temperature Precipitation Wind Pressure Humidity
    00:00 +21°C° 0 mm 1 mps 691 mmHg 96%
    01:00 +21°C° 0 mm 1 mps 691 mmHg 98%
    02:00 +21°C° 0 mm 1 mps 691 mmHg 97%
    03:00 +19°C° 0 mm 0 mps 691 mmHg 97%
    04:00 +20°C° 0 mm 0 mps 691 mmHg 97%
    05:00 +20°C° 0 mm 0 mps 691 mmHg 96%
    06:00 +20°C° 0 mm 0 mps 691 mmHg 95%
    07:00 +22°C° 0 mm 1 mps 691 mmHg 94%
    08:00 +25°C° 0 mm 1 mps 692 mmHg 83%
    09:00 +27°C° 0 mm 1 mps 693 mmHg 72%
    10:00 +29°C° 0 mm 1 mps 693 mmHg 61%
    11:00 +30°C° 0 mm 1 mps 693 mmHg 58%
    12:00 +31°C° 0 mm 2 mps 692 mmHg 54%
    13:00 +31°C° 0 mm 2 mps 691 mmHg 50%
    14:00 +31°C° 0 mm 2 mps 691 mmHg 53%
    15:00 +30°C° 0 mm 2 mps 690 mmHg 56%
    16:00 +30°C° 0 mm 2 mps 689 mmHg 59%
    17:00 +28°C° 0 mm 2 mps 690 mmHg 68%
    18:00 +26°C° 0 mm 1 mps 690 mmHg 78%
    19:00 +24°C° 0 mm 1 mps 690 mmHg 87%
    20:00 +23°C° 0 mm 1 mps 691 mmHg 89%
    21:00 +21°C° 0 mm 0 mps 691 mmHg 92%
    22:00 +20°C° 0 mm 0 mps 692 mmHg 94%
    23:00 +20°C° 0 mm 0 mps 692 mmHg 95%

    27 January, Monday

    Time Temperature Precipitation Wind Pressure Humidity
    00:00 +22°C° 0 mm 1 mps 691 mmHg 96%
    01:00 +22°C° 0 mm 1 mps 691 mmHg 97%
    02:00 +22°C° 0 mm 1 mps 691 mmHg 96%
    03:00 +20°C° 0 mm 0 mps 691 mmHg 95%
    04:00 +20°C° 0 mm 0 mps 691 mmHg 95%
    05:00 +20°C° 0 mm 0 mps 691 mmHg 95%
    06:00 +20°C° 0 mm 0 mps 691 mmHg 95%
    07:00 +20°C° 0 mm 0 mps 691 mmHg 95%
    08:00 +24°C° 0 mm 1 mps 692 mmHg 84%
    09:00 +27°C° 0 mm 1 mps 693 mmHg 73%
    10:00 +29°C° 0 mm 1 mps 693 mmHg 62%
    11:00 +29°C° 0.2 mm 1 mps 693 mmHg 60%
    12:00 +30°C° 0.2 mm 1 mps 692 mmHg 59%
    13:00 +30°C° 0.2 mm 2 mps 692 mmHg 58%
    14:00 +30°C° 0.4 mm 2 mps 691 mmHg 62%
    15:00 +29°C° 0.4 mm 2 mps 690 mmHg 66%
    16:00 +29°C° 0.4 mm 2 mps 689 mmHg 70%
    17:00 +27°C° 0.3 mm 2 mps 690 mmHg 78%
    18:00 +25°C° 0.3 mm 1 mps 690 mmHg 86%
    19:00 +23°C° 0.3 mm 1 mps 690 mmHg 93%
    20:00 +23°C° 0 mm 1 mps 690 mmHg 94%
    21:00 +22°C° 0 mm 1 mps 691 mmHg 95%
    22:00 +20°C° 0 mm 0 mps 692 mmHg 96%
    23:00 +22°C° 0 mm 1 mps 692 mmHg 97%

    28 January, Tuesday

    Time Temperature Precipitation Wind Pressure Humidity
    00:00 +21°C° 0 mm 1 mps 691 mmHg 98%
    01:00 +21°C° 0 mm 1 mps 691 mmHg 99%
    02:00 +21°C° 0 mm 1 mps 691 mmHg 99%
    03:00 +20°C° 0 mm 1 mps 691 mmHg 99%
    04:00 +18°C° 0 mm 0 mps 690 mmHg 99%
    05:00 +19°C° 0 mm 0 mps 691 mmHg 98%
    06:00 +19°C° 0 mm 0 mps 691 mmHg 97%
    07:00 +19°C° 0 mm 0 mps 691 mmHg 96%
    08:00 +24°C° 0 mm 1 mps 692 mmHg 83%
    09:00 +27°C° 0 mm 1 mps 692 mmHg 71%
    10:00 +29°C° 0 mm 1 mps 693 mmHg 59%
    11:00 +30°C° 0.1 mm 1 mps 692 mmHg 58%
    12:00 +30°C° 0.1 mm 1 mps 692 mmHg 56%
    13:00 +31°C° 0.1 mm 2 mps 691 mmHg 55%
    14:00 +30°C° 0.7 mm 2 mps 690 mmHg 64%
    15:00 +29°C° 0.7 mm 2 mps 689 mmHg 73%
    16:00 +28°C° 0.7 mm 2 mps 689 mmHg 82%
    17:00 +26°C° 0.9 mm 1 mps 689 mmHg 87%
    18:00 +24°C° 0.9 mm 1 mps 689 mmHg 91%
    19:00 +21°C° 0.9 mm 0 mps 689 mmHg 95%
    20:00 +20°C° 0 mm 0 mps 690 mmHg 96%
    21:00 +20°C° 0 mm 0 mps 690 mmHg 96%
    22:00 +20°C° 0 mm 0 mps 691 mmHg 97%
    23:00 +20°C° 0 mm 0 mps 691 mmHg 98%
    Show more